This is the latest recevied weather packets stored in our database for station/object W1GK. If no packets are shown the sender has not sent any weather packets the latest 10 day(s).
| Time | Temp. | Humidity | Pressure | Rain* | Wind** | Luminosity | Snow |
|---|---|---|---|---|---|---|---|
| 1788140995 | 94° F | 15% | 757.8 mmHg | 0 in | - | 19 W/m² | - |
| 1788140395 | 95° F | 15% | 757.7 mmHg | 0 in | - | 25 W/m² | - |
| 1788139796 | 96° F | 14% | 757.6 mmHg | 0 in | - | 28 W/m² | - |
| 1788139198 | 96° F | 14% | 757.7 mmHg | 0 in | - | 97 W/m² | - |
| 1788138596 | 97° F | 15% | 757.7 mmHg | 0 in | - | 67 W/m² | - |
| 1788137994 | 97° F | 16% | 757.7 mmHg | 0 in | - | 213 W/m² | - |
| 1788137394 | 97° F | 15% | 757.8 mmHg | 0 in | - | 193 W/m² | - |
| 1788136796 | 98° F | 16% | 757.9 mmHg | 0 in | - | 135 W/m² | - |
| 1788136194 | 98° F | 16% | 757.9 mmHg | 0 in | - | 230 W/m² | - |
| 1788135594 | 98° F | 16% | 757.9 mmHg | 0 in | - | 195 W/m² | - |
| 1788134993 | 99° F | 15% | 758 mmHg | 0 in | - | 218 W/m² | - |
| 1788134394 | 100° F | 16% | 758 mmHg | 0 in | - | 246 W/m² | - |
| 1788133795 | 100° F | 15% | 758.1 mmHg | 0 in | - | 267 W/m² | - |
| 1788133195 | 100° F | 14% | 758.2 mmHg | 0 in | - | 352 W/m² | - |
| 1788132594 | 101° F | 14% | 758.2 mmHg | 0 in | - | 287 W/m² | - |
| 1788131995 | 101° F | 15% | 758.2 mmHg | 0 in | - | 561 W/m² | - |
| 1788131394 | 100° F | 15% | 758.2 mmHg | 0 in | - | 522 W/m² | - |
| 1788130793 | 100° F | 15% | 758.4 mmHg | 0 in | - | 617 W/m² | - |
| 1788130195 | 100° F | 15% | 758.4 mmHg | 0 in | - | 364 W/m² | - |
| 1788129594 | 100° F | 15% | 758.5 mmHg | 0 in | - | 580 W/m² | - |
| 1788128994 | 100° F | 15% | 758.5 mmHg | 0 in | - | 489 W/m² | - |
| 1788128394 | 101° F | 14% | 758.7 mmHg | 0 in | - | 438 W/m² | - |
| 1788127795 | 101° F | 15% | 758.6 mmHg | 0 in | - | 503 W/m² | - |
| 1788127194 | 101° F | 15% | 758.8 mmHg | 0 in | - | 492 W/m² | - |
| 1788126595 | 101° F | 14% | 758.8 mmHg | 0 in | - | 492 W/m² | - |
* Rain latest hour (hover to see other rain measurements)
** Current wind speed in m/s (hover to see current wind gust speed)